Wind_Speed
3 2 2 2 1 1 2 2 3 3 4 4 4 5 5 5 5 5 5 5 4 4 5 5 6 6 5 5 6 6 8 8 8 8 8 9 9 9 10 10 10 10 10
4 3 2 2 2 2 2 3 3 3 4 4 4 5 5 5 6 6 6 5 6 6 6 6 6 7 6 6 7 7 7 8 9 9 9 9 9 10 10 10 10 11 11
4 4 3 3 3 3 3 3 3 3 4 4 4 5 6 6 6 6 5 6 6 7 7 7 6 8 7 7 7 7 8 8 9 10 9 9 10 10 10 11 11 11 11
4 4 4 4 3 3 3 3 3 3 3 4 4 5 6 6 6 6 5 5 5 5 6 7 6 8 7 7 7 8 9 9 9 9 10 10 10 11 11 11 12 12 12
4 5 4 4 4 4 4 4 3 4 4 4 5 5 5 6 7 7 6 6 6 6 6 6 6 7 8 8 8 8 9 9 9 9 10 11 11 11 12 13 13 13 13
4 5 5 4 5 5 5 5 4 4 4 5 5 5 5 6 7 7 7 7 6 6 6 7 7 7 8 9 9 9 9 10 10 10 10 11 12 12 13 13 13 14 14
4 5 5 5 5 5 5 6 6 5 6 6 6 6 6 6 7 8 8 8 7 7 7 7 8 8 8 9 9 10 10 11 11 11 11 11 12 12 13 13 13 14 15
4 4 5 6 6 6 6 6 6 6 6 7 7 7 7 8 8 8 9 8 8 8 9 9 9 9 9 9 9 10 11 12 13 13 13 13 12 13 13 13 14 14 14
4 5 5 6 7 7 7 7 7 7 7 7 7 8 8 8 8 9 9 9 9 9 10 10 10 10 10 10 10 10 11 12 12 12 13 13 13 13 14 14 14 14 14
5 6 6 6 7 7 8 8 8 8 8 8 8 8 8 9 9 9 10 10 10 10 11 11 11 11 11 11 11 11 11 12 12 12 13 13 14 14 15 14 15 15 15
6 6 6 6 7 7 7 8 8 8 8 9 8 8 9 9 9 9 10 10 10 11 11 11 11 11 11 12 12 12 12 12 13 13 13 14 14 14 15 15 15 15 16
6 6 6 7 7 7 8 8 9 9 9 9 9 9 9 10 10 10 10 10 10 11 11 11 12 12 12 12 13 13 13 12 13 13 14 14 15 15 15 15 16 16 16
5 6 6 7 8 8 8 8 9 9 9 9 10 10 10 10 10 11 11 11 11 11 12 12 12 12 12 13 13 14 14 13 13 14 14 14 14 14 15 15 15 16 16
7 6 7 7 8 9 9 9 10 10 10 10 10 10 10 10 11 11 11 12 12 12 12 13 13 12 12 13 13 13 14 14 14 14 14 13 13 14 14 15 15 15 16
7 7 8 8 9 9 9 10 11 11 11 11 11 11 11 11 11 12 12 12 13 13 13 13 13 13 13 13 13 14 14 14 14 14 14 14 14 14 15 15 15 15 16
7 8 8 9 9 10 10 10 11 12 12 12 12 12 12 12 12 12 13 12 13 13 14 13 13 13 13 13 13 13 14 14 14 14 14 14 15 15 15 15 15 15 15
8 9 9 10 10 10 11 11 11 11 11 11 12 13 13 13 13 13 13 13 13 13 14 15 15 14 14 14 14 13 13 14 14 14 14 15 15 15 15 15 15 15 16
9 9 10 10 11 11 12 11 11 11 11 11 12 13 13 13 13 13 13 13 13 13 14 14 14 15 14 14 14 14 14 15 15 14 15 15 15 15 15 16 16 17 17
10 10 10 11 11 12 12 12 12 12 12 12 13 13 13 14 14 14 14 14 14 14 14 14 14 15 15 14 14 14 15 15 15 16 16 16 15 15 15 15 16 17 17
11 11 11 11 11 11 12 13 13 13 13 13 13 13 14 14 14 15 14 14 14 15 15 15 15 14 15 15 14 14 14 15 15 16 16 16 16 16 16 16 16 17 17
12 12 12 12 12 12 12 13 13 13 14 14 13 14 14 14 14 15 15 14 14 15 15 15 15 15 14 15 15 15 15 15 16 16 16 16 17 17 17 17 17 17 17
13 13 13 13 13 13 13 13 14 14 14 14 14 14 14 14 15 15 15 15 15 15 15 15 15 15 15 15 16 16 15 15 16 16 17 17 18 18 18 18 18 18 19
14 15 14 14 14 14 14 14 15 15 15 15 15 14 15 15 15 15 14 14 14 15 15 15 15 15 15 15 16 16 16 16 16 16 16 17 18 19 19 20 20 19 19
15 15 15 15 15 15 15 16 16 16 16 16 16 16 15 15 15 15 16 15 15 16 16 16 16 16 16 16 16 17 17 17 17 17 17 18 18 19 19 19 19 19 19
16 16 15 16 16 16 16 16 16 16 16 16 16 16 16 16 16 15 15 16 16 16 17 17 16 16 16 17 17 17 17 17 17 17 17 18 18 18 19 19 19 20 20
16 16 16 16 16 16 16 16 16 16 15 15 16 16 17 17 16 16 16 16 17 17 17 17 17 17 16 17 17 17 17 18 18 18 18 18 18 19 19 19 20 21 21
Wind_Direction
182 187 185 185 206 233 237 231 229 219 213 217 210 209 211 211 213 216 220 216 222 223 220 214 209 205 201 207 209 204 200 198 198 204 207 208 210 209 206 208 209 210 211
201 203 202 207 220 228 230 238 234 227 222 220 215 212 214 218 219 223 227 228 229 230 229 219 211 212 210 210 214 208 203 198 199 203 207 210 211 210 209 209 211 215 216
211 216 222 229 229 231 234 245 238 229 221 216 215 213 217 218 220 224 230 230 232 232 232 224 221 215 215 215 218 216 211 210 208 210 212 212 215 211 212 212 215 217 220
225 224 224 231 231 232 233 239 241 235 225 219 219 218 221 218 217 219 226 230 230 228 228 224 220 218 222 222 219 216 216 217 218 217 218 221 221 217 220 222 223 224 226
235 232 226 227 231 237 231 236 238 239 233 225 225 224 223 221 218 220 223 227 225 225 225 220 217 225 227 230 228 224 224 226 227 228 230 229 229 225 226 227 228 228 230
250 244 235 238 245 242 237 244 240 243 243 236 238 233 228 228 227 229 230 230 229 229 224 224 224 226 227 231 236 233 233 233 233 236 237 235 233 230 229 230 231 232 233
259 247 246 247 249 249 249 254 259 254 250 248 249 247 243 242 240 236 237 237 234 235 235 236 235 234 236 238 242 243 241 239 240 239 239 238 237 234 233 234 236 235 235
261 257 255 252 250 252 255 259 259 258 254 251 254 256 253 249 246 242 242 244 242 241 241 241 242 243 243 244 244 243 244 247 245 242 243 242 240 236 236 237 238 236 236
268 262 260 258 255 256 260 256 256 256 254 255 256 258 258 255 251 248 246 246 247 245 245 245 248 247 248 247 246 247 247 247 248 247 245 245 243 240 239 237 238 239 240
271 264 259 259 259 263 264 262 259 258 258 258 258 260 259 257 255 252 250 251 253 251 247 247 250 249 252 252 250 251 250 249 247 248 247 246 245 244 243 241 241 242 242
272 273 268 262 261 261 265 265 262 259 259 258 260 262 261 259 257 255 252 255 256 254 249 248 251 253 256 256 253 255 253 250 249 249 249 249 248 247 247 245 243 244 245
277 276 274 266 265 263 265 265 261 257 256 259 261 261 261 260 260 259 255 256 257 255 253 251 254 256 258 257 255 254 253 252 251 250 250 250 249 248 246 246 246 247 248
280 277 271 268 266 266 265 265 261 259 259 262 261 259 259 261 260 260 258 257 256 256 257 254 254 257 258 258 257 252 253 253 251 250 250 249 249 247 246 245 246 248 250
283 277 272 269 267 264 264 267 266 264 262 262 261 260 260 260 260 260 261 258 257 256 257 256 255 256 257 257 257 256 256 254 251 248 246 248 249 248 246 245 247 248 248
284 278 276 273 270 269 266 269 269 265 263 260 260 261 262 263 264 263 263 261 259 258 257 257 258 256 258 258 256 258 256 254 252 248 248 249 249 249 247 246 246 248 249
289 284 279 278 277 275 274 274 270 267 266 263 260 260 262 263 265 265 264 262 260 259 259 258 257 258 259 259 258 258 255 252 250 248 249 250 251 252 252 251 249 248 249
290 289 286 283 282 281 279 276 274 270 268 264 261 260 262 263 263 265 266 264 262 261 261 260 259 259 259 258 256 257 255 252 250 249 250 251 252 253 253 253 252 251 251
294 293 290 288 285 283 281 278 277 274 269 267 266 262 264 265 265 265 266 265 263 263 263 261 262 261 261 258 257 258 255 253 252 251 252 252 252 252 252 253 254 255 253
296 296 292 289 287 283 280 279 277 277 275 272 270 265 265 267 268 266 266 264 265 265 262 261 262 263 262 259 258 258 255 253 254 252 254 252 250 252 254 254 255 256 254
295 296 294 293 291 288 286 284 281 278 277 274 273 267 264 266 268 267 266 264 264 263 262 263 264 263 261 260 261 260 256 255 255 252 252 253 251 253 254 255 255 256 257
290 292 292 292 291 289 287 284 281 280 279 277 274 271 266 266 268 270 265 263 262 263 263 263 263 263 262 260 262 262 259 257 256 255 254 253 253 254 254 256 257 256 257
289 289 289 289 289 288 287 285 282 281 279 277 276 273 269 268 269 271 266 263 264 264 262 263 263 264 263 261 261 262 261 259 259 258 254 253 254 254 254 258 258 257 258
289 289 288 287 288 289 288 285 284 282 278 274 273 273 273 270 269 270 270 267 267 263 262 262 263 264 262 261 260 260 261 260 260 258 256 256 256 256 257 258 258 257 256
288 289 289 288 288 287 286 286 284 280 277 273 271 273 274 274 272 271 271 267 266 263 261 261 263 262 262 262 260 260 262 263 260 259 260 260 259 259 259 259 257 256 256
289 289 288 289 288 289 287 285 283 279 278 275 272 272 273 273 273 272 271 268 265 264 262 262 262 263 263 262 262 262 263 263 263 261 261 260 260 259 258 257 255 257 259
288 290 290 291 290 290 289 286 284 281 279 276 272 273 273 272 271 269 271 269 268 266 263 262 262 264 264 265 265 264 264 263 263 262 262 260 260 260 260 258 256 258 259
Height
5868 5868 5868 5868 5867 5867 5867 5867 5867 5867 5867 5867 5867 5867 5867 5867 5868 5868 5868 5868 5868 5868 5868 5868 5868 5869 5870 5870 5870 5871 5871 5871 5872 5873 5874 5875 5875 5876 5877 5878 5879 5880 5880
5868 5867 5867 5867 5867 5867 5867 5867 5866 5866 5866 5866 5866 5866 5866 5867 5867 5867 5867 5867 5867 5867 5867 5867 5867 5868 5868 5869 5869 5870 5870 5871 5871 5872 5873 5874 5875 5876 5876 5877 5878 5879 5879
5867 5867 5867 5867 5867 5866 5866 5866 5866 5865 5865 5865 5865 5865 5865 5866 5866 5866 5866 5866 5866 5866 5866 5866 5866 5867 5867 5868 5868 5869 5870 5870 5870 5871 5872 5873 5874 5874 5875 5876 5877 5878 5878
5866 5866 5866 5866 5866 5866 5865 5865 5865 5865 5865 5865 5864 5864 5864 5865 5865 5865 5865 5865 5865 5865 5866 5866 5865 5865 5866 5867 5867 5868 5868 5869 5870 5870 5871 5872 5872 5873 5874 5875 5875 5876 5877
5865 5865 5865 5865 5865 5865 5864 5864 5864 5864 5864 5864 5864 5864 5863 5864 5864 5864 5864 5864 5864 5864 5865 5865 5865 5865 5865 5866 5866 5867 5867 5868 5869 5869 5870 5870 5871 5872 5872 5873 5874 5874 5875
5864 5864 5864 5864 5864 5864 5863 5863 5863 5863 5863 5863 5863 5863 5863 5863 5863 5863 5863 5863 5863 5863 5863 5864 5864 5864 5864 5864 5865 5865 5866 5866 5867 5868 5868 5869 5869 5870 5870 5871 5872 5872 5873
5863 5863 5863 5863 5863 5863 5862 5862 5862 5862 5862 5862 5862 5862 5862 5862 5862 5862 5862 5862 5862 5862 5862 5863 5863 5863 5863 5863 5863 5863 5864 5865 5865 5866 5866 5867 5867 5867 5868 5869 5869 5870 5871
5862 5862 5862 5862 5862 5861 5861 5861 5861 5861 5861 5861 5861 5861 5860 5860 5860 5860 5860 5860 5861 5861 5861 5861 5861 5861 5861 5861 5861 5862 5862 5863 5863 5863 5864 5864 5865 5865 5866 5866 5867 5868 5868
5861 5861 5861 5861 5860 5860 5860 5860 5860 5860 5860 5859 5859 5859 5859 5859 5859 5859 5859 5859 5859 5859 5859 5859 5860 5860 5859 5859 5860 5860 5860 5860 5861 5861 5862 5862 5863 5863 5864 5864 5865 5866 5866
5860 5860 5859 5859 5859 5859 5859 5859 5859 5858 5858 5858 5858 5857 5857 5857 5857 5857 5857 5857 5857 5857 5857 5857 5857 5858 5858 5858 5858 5858 5858 5858 5858 5859 5860 5860 5860 5861 5861 5862 5862 5863 5863
5858 5858 5858 5857 5857 5857 5857 5857 5857 5857 5856 5856 5856 5856 5855 5855 5855 5855 5855 5855 5855 5855 5855 5855 5855 5855 5855 5855 5855 5856 5856 5856 5856 5856 5857 5857 5858 5858 5858 5859 5859 5860 5861
5857 5857 5856 5856 5856 5856 5855 5855 5855 5855 5855 5854 5854 5854 5853 5853 5853 5853 5853 5853 5853 5853 5853 5853 5853 5853 5853 5853 5853 5853 5853 5853 5854 5854 5854 5855 5855 5855 5856 5856 5857 5857 5857
5855 5855 5855 5854 5854 5854 5853 5853 5853 5853 5852 5852 5852 5852 5851 5851 5851 5851 5851 5851 5851 5850 5850 5850 5850 5850 5850 5850 5850 5850 5850 5850 5851 5851 5851 5852 5852 5852 5853 5853 5854 5854 5854
5854 5854 5853 5852 5852 5852 5851 5851 5851 5850 5850 5850 5850 5849 5849 5849 5848 5848 5848 5848 5848 5848 5848 5848 5848 5848 5847 5847 5847 5847 5847 5847 5848 5848 5848 5849 5849 5850 5850 5850 5850 5851 5851
5852 5852 5851 5851 5850 5850 5849 5849 5849 5848 5848 5848 5847 5847 5847 5846 5846 5846 5845 5845 5845 5845 5845 5845 5845 5845 5845 5844 5844 5844 5844 5844 5845 5845 5845 5846 5846 5847 5847 5847 5847 5848 5848
5851 5850 5850 5849 5848 5847 5847 5846 5846 5846 5845 5845 5845 5844 5844 5844 5843 5843 5843 5843 5842 5842 5842 5842 5842 5842 5842 5841 5841 5841 5841 5841 5842 5842 5843 5843 5843 5843 5844 5844 5844 5844 5845
5849 5848 5847 5847 5846 5845 5844 5844 5843 5843 5842 5842 5842 5842 5841 5841 5841 5841 5840 5840 5839 5839 5839 5839 5839 5839 5839 5838 5838 5838 5838 5838 5839 5839 5839 5840 5840 5840 5840 5841 5841 5841 5841
5847 5846 5845 5844 5843 5843 5842 5841 5840 5840 5840 5839 5839 5839 5838 5838 5838 5838 5837 5837 5837 5836 5836 5836 5835 5835 5835 5835 5835 5835 5835 5835 5836 5836 5836 5836 5836 5837 5837 5837 5837 5837 5838
5845 5844 5843 5842 5841 5840 5839 5838 5838 5837 5837 5836 5836 5836 5835 5835 5835 5834 5834 5834 5833 5833 5833 5833 5832 5832 5832 5832 5832 5832 5832 5832 5832 5832 5833 5833 5833 5833 5833 5834 5834 5834 5834
5842 5841 5840 5839 5838 5837 5836 5836 5835 5834 5834 5833 5833 5832 5832 5831 5831 5831 5830 5830 5830 5830 5830 5829 5829 5829 5829 5829 5829 5829 5828 5828 5828 5829 5829 5829 5829 5830 5830 5830 5830 5830 5830
5840 5839 5837 5836 5835 5834 5833 5833 5832 5831 5830 5830 5829 5828 5828 5827 5827 5827 5827 5826 5826 5826 5826 5826 5826 5825 5825 5825 5825 5825 5825 5825 5825 5825 5825 5825 5826 5826 5826 5826 5826 5826 5827
5837 5836 5834 5833 5832 5831 5830 5829 5828 5827 5827 5826 5825 5825 5824 5824 5824 5823 5823 5823 5823 5822 5822 5822 5822 5822 5822 5822 5822 5821 5821 5822 5821 5821 5821 5821 5822 5822 5822 5822 5822 5822 5823
5833 5832 5831 5830 5828 5827 5826 5825 5824 5823 5823 5822 5822 5821 5821 5820 5820 5820 5819 5819 5819 5819 5818 5818 5818 5818 5818 5818 5817 5818 5817 5817 5817 5817 5817 5817 5817 5818 5818 5818 5818 5818 5818
5830 5829 5827 5826 5825 5823 5822 5821 5820 5819 5818 5818 5817 5817 5817 5816 5816 5816 5815 5815 5815 5815 5814 5814 5814 5814 5814 5814 5813 5813 5813 5813 5813 5813 5813 5813 5813 5813 5813 5813 5813 5814 5814
5826 5825 5824 5822 5821 5820 5818 5817 5816 5815 5814 5813 5813 5813 5813 5812 5812 5811 5811 5811 5811 5810 5810 5810 5810 5810 5810 5809 5809 5809 5809 5808 5808 5809 5809 5809 5808 5809 5809 5809 5809 5809 5809
5822 5821 5820 5819 5817 5816 5814 5813 5811 5810 5810 5809 5809 5808 5808 5808 5807 5807 5807 5806 5806 5806 5806 5806 5806 5806 5805 5805 5805 5805 5804 5804 5804 5804 5804 5804 5804 5804 5804 5804 5804 5804 5804